Weather History for CXHA - November, 2012

Change the Weather History Date:

Tuesday, November 20, 2012

  Actual Average Record
Temperature  
Mean Temperature 45 °F -  
Max Temperature 54 °F - - ()
Min Temperature 36 °F - - ()
Degree Days  
Heating Degree Days 20    
Moisture  
Dew Point 39 °F    
Average Humidity 83    
Maximum Humidity 98    
Minimum Humidity 50    
Precipitation  
Precipitation 0.00 in - - ()
Sea Level Pressure  
Sea Level Pressure 30.14 in    
Wind  
Wind Speed 2 mph ()    
Max Wind Speed 5 mph    
Max Gust Speed -    
T = Trace of Precipitation, MM = Missing Value Source: Averaged Metar Reports

Daily Weather History Graph

Daily Weather History Graph

Search for Another Location

Airport or City:

Trip Planner

Search our weather history database for the weather conditions in past years. The results will help you decide how hot, cold, wet, or windy it might be!

Date:

Astronomy

Nov. 20, 2012 Rise Set
Actual Time 7:28 AM EST 5:06 PM EST
Civil Twilight 6:57 AM EST 5:36 PM EST
Nautical Twilight 6:23 AM EST 6:10 PM EST
Astronomical Twilight 5:50 AM EST 6:43 PM EST
Moon 12:58 PM EST (11/20) No Moon Set
Length of Visible Light 10h 38m
Length of Day
9h 37m
Waxing Crescent, 51% of the Moon is Illuminated
Nov 20
Waxing Crescent
Nov 28
Full
Dec 6
Last Quarter
Dec 13
New
Dec 20
First Quarter

Hourly Weather History & Observations

Time (EST) Temp. Windchill Dew Point Humidity Pressure Visibility Wind Dir Wind Speed Gust Speed Precip Events Conditions
12:00 AM 37.9 °F - 37.0 °F 97% 30.19 in - SSE 2.3 mph - N/A   Unknown
1:00 AM 39 °F - 38 °F 94% 30.18 in - SSE 2.3 mph - -  
1:00 AM 38.7 °F - 37.9 °F 97% 30.18 in - SSE 2.3 mph - N/A   Unknown
2:00 AM 39.2 °F 37.0 °F 38.5 °F 97% 30.16 in - South 3.5 mph - N/A   Unknown
3:00 AM 38.5 °F - 37.8 °F 97% 30.17 in - SSE 2.3 mph - N/A   Unknown
4:00 AM 37.8 °F - 37.2 °F 98% 30.16 in - South 2.3 mph - N/A   Unknown
5:00 AM 39.2 °F - 38.5 °F 97% 30.15 in - Calm Calm - N/A   Unknown
6:00 AM 39.4 °F - 38.7 °F 97% 30.15 in - SE 2.3 mph - N/A   Unknown
7:00 AM 40 °F - 39 °F 94% 30.16 in - SSW 3.5 mph - -  
7:00 AM 39.9 °F 37.8 °F 38.8 °F 96% 30.16 in - SSW 3.5 mph - N/A   Unknown
8:00 AM 41.0 °F - 39.0 °F 93% 30.15 in - SSE 2.3 mph - N/A   Unknown
9:00 AM 43.0 °F 41.3 °F 40.6 °F 91% 30.14 in - SSE 3.5 mph - N/A   Unknown
10:00 AM 45.9 °F 43.6 °F 39.7 °F 79% 30.14 in - SSW 4.6 mph - N/A   Unknown
11:00 AM 47.1 °F - 39.2 °F 74% 30.15 in - South 3.5 mph - N/A   Unknown
12:00 PM 48.9 °F - 39.7 °F 71% 30.12 in - SW 4.6 mph - N/A   Unknown
1:00 PM 51 °F - 38 °F 50% 30.10 in - Calm Calm - -  
1:00 PM 50.7 °F - 37.8 °F 61% 30.10 in - Calm Calm - N/A   Unknown
2:00 PM 54.0 °F - 39.6 °F 58% 30.09 in - SSE 3.5 mph - N/A   Unknown
3:00 PM 50.2 °F - 39.0 °F 66% 30.09 in - South 4.6 mph - N/A   Unknown
4:00 PM 49.8 °F - 37.6 °F 63% 30.09 in - South 4.6 mph - N/A   Unknown
5:00 PM 47.5 °F - 37.2 °F 68% 30.10 in - Calm Calm - N/A   Unknown
6:00 PM 46.0 °F - 38.7 °F 75% 30.13 in - SSE 1.2 mph - N/A   Unknown
7:00 PM 45 °F - 39 °F 73% 30.14 in - East 2.3 mph - -  
7:00 PM 45.1 °F - 39.2 °F 80% 30.14 in - East 2.3 mph - N/A   Unknown
8:00 PM 45.3 °F - 39.0 °F 79% 30.14 in - NW 1.2 mph - N/A   Unknown
9:00 PM 43.9 °F - 40.5 °F 88% 30.14 in - South 1.2 mph - N/A   Unknown
10:00 PM 43.2 °F - 40.5 °F 90% 30.15 in - Calm Calm - N/A   Unknown
11:00 PM 41.4 °F - 38.5 °F 89% 30.14 in - SE 2.3 mph - N/A   Unknown